| time (UTC) | temp C | wind direction | speed KPH | gust KPH | rain 1hr cm | rain 24hr cm | rain mn cm | humidity % | barometer mb |
| 20260506211548 | 11 | 0.0 | 0.0 | 0.00 | 0.00 | 0.00 | 89 | 1005.9 | |
| 20260506210606 | 11 | 0.0 | 0.0 | 0.00 | 0.00 | 0.00 | 89 | 1005.9 | |
| 20260506205544 | 11 | 0.0 | 0.0 | 0.00 | 0.00 | 0.00 | 89 | 1005.9 | |
| 20260506204542 | 11 | 0.0 | 0.0 | 0.00 | 0.00 | 0.00 | 89 | 1005.8 | |
| 20260506203539 | 11 | 0.0 | 0.0 | 0.00 | 0.00 | 0.00 | 89 | 1005.7 | |
| 20260506202537 | 11 | 0.0 | 0.0 | 0.00 | 0.00 | 0.00 | 89 | 1005.6 | |
| 20260506201533 | 12 | 0.0 | 0.0 | 0.00 | 0.00 | 0.00 | 89 | 1005.5 | |
| 20260506200534 | 12 | 0.0 | 0.0 | 0.00 | 0.00 | 0.00 | 89 | 1005.4 | |
| 20260506195533 | 12 | 0.0 | 0.0 | 0.00 | 0.00 | 0.00 | 89 | 1005.3 | |
| 20260506194528 | 12 | 0.0 | 0.0 | 0.00 | 0.00 | 0.00 | 89 | 1005.2 | |
| 20260506193527 | 12 | 0.0 | 0.0 | 0.00 | 0.00 | 0.00 | 89 | 1005.1 | |
| 20260506192527 | 12 | 0.0 | 0.0 | 0.00 | 0.00 | 0.00 | 89 | 1004.9 | |
| 20260506191522 | 12 | 0.0 | 0.0 | 0.00 | 0.00 | 0.00 | 89 | 1004.8 | |
| 20260506190522 | 12 | 0.0 | 0.0 | 0.00 | 0.00 | 0.00 | 88 | 1004.7 | |
| 20260506185518 | 12 | 0.0 | 0.0 | 0.00 | 0.00 | 0.00 | 88 | 1004.6 | |
| 20260506184516 | 12 | 0.0 | 0.0 | 0.00 | 0.00 | 0.00 | 88 | 1004.4 | |
| 20260506183515 | 12 | 0.0 | 0.0 | 0.00 | 0.00 | 0.00 | 88 | 1004.3 | |
| 20260506182534 | 13 | 0.0 | 0.0 | 0.00 | 0.00 | 0.00 | 88 | 1004.2 | |
| 20260506181510 | 13 | 0.0 | 0.0 | 0.00 | 0.00 | 0.00 | 87 | 1004.2 | |
| 20260506180510 | 13 | 0.0 | 0.0 | 0.00 | 0.00 | 0.00 | 87 | 1004.0 | |
| 20260506175508 | 13 | 0.0 | 0.0 | 0.00 | 0.00 | 0.00 | 86 | 1003.8 | |
| 20260506174505 | 13 | 0.0 | 0.0 | 0.00 | 0.00 | 0.00 | 86 | 1003.7 | |
| 20260506173003 | 13 | 0.0 | 0.0 | 0.00 | 0.00 | 0.00 | 86 | 1003.4 | |
| 20260506171957 | 14 | 0.0 | 0.0 | 0.00 | 0.00 | 0.00 | 86 | 1003.3 | |
| 20260506171001 | 14 | 0.0 | 0.0 | 0.00 | 0.00 | 0.00 | 86 | 1003.3 | |
| 20260506165956 | 14 | 0.0 | 0.0 | 0.00 | 0.00 | 0.00 | 86 | 1003.3 | |
| 20260506164954 | 14 | 0.0 | 0.0 | 0.00 | 0.00 | 0.00 | 87 | 1003.3 | |
| 20260506163953 | 14 | 0.0 | 0.0 | 0.00 | 0.00 | 0.00 | 87 | 1003.3 | |
| 20260506162951 | 14 | 0.0 | 0.0 | 0.00 | 0.00 | 0.00 | 87 | 1003.4 | |
| 20260506161950 | 14 | 0.0 | 0.0 | 0.00 | 0.00 | 0.00 | 87 | 1003.5 | |
| 20260506160946 | 14 | 0.0 | 0.0 | 0.00 | 0.00 | 0.00 | 87 | 1003.5 | |
| 20260506155945 | 14 | 0.0 | 0.0 | 0.00 | 0.00 | 0.00 | 86 | 1003.6 | |
| 20260506154943 | 14 | 0.0 | 0.0 | 0.00 | 0.00 | 0.00 | 86 | 1003.6 | |
| 20260506153940 | 14 | 0.0 | 0.0 | 0.00 | 0.00 | 0.00 | 86 | 1003.5 | |
| 20260506152959 | 14 | 0.0 | 0.0 | 0.00 | 0.00 | 0.00 | 86 | 1003.5 | |
| 20260506151937 | 15 | 0.0 | 0.0 | 0.00 | 0.00 | 0.00 | 86 | 1003.6 | |
| 20260506150957 | 15 | 0.0 | 0.0 | 0.00 | 0.00 | 0.00 | 85 | 1003.7 | |
| 20260506145932 | 16 | 0.0 | 0.0 | 0.00 | 0.00 | 0.00 | 83 | 1003.5 | |
| 20260506144930 | 16 | 0.0 | 0.0 | 0.00 | 0.00 | 0.00 | 83 | 1003.1 | |
| 20260506143929 | 16 | 0.0 | 0.0 | 0.00 | 0.00 | 0.00 | 83 | 1003.1 | |
| 20260506142926 | 16 | 0.0 | 0.0 | 0.00 | 0.00 | 0.00 | 82 | 1003.1 | |
| 20260506141925 | 16 | 0.0 | 0.0 | 0.00 | 0.00 | 0.00 | 82 | 1003.1 | |
| 20260506140922 | 17 | 0.0 | 0.0 | 0.00 | 0.00 | 0.00 | 81 | 1003.1 | |
| 20260506135943 | 17 | 0.0 | 0.0 | 0.00 | 0.00 | 0.00 | 78 | 1002.9 | |
| 20260506134917 | 18 | 0.0 | 0.0 | 0.00 | 0.00 | 0.00 | 75 | 1002.5 | |
| 20260506133913 | 18 | 0.0 | 0.0 | 0.00 | 0.00 | 0.00 | 72 | 1002.4 | |
| 20260506132935 | 19 | 0.0 | 0.0 | 0.00 | 0.00 | 0.00 | 68 | 1002.4 | |
| 20260506131912 | 20 | 0.0 | 0.0 | 0.00 | 0.00 | 0.00 | 65 | 1002.1 | |
| 20260506130911 | 20 | 0.0 | 0.0 | 0.00 | 0.00 | 0.00 | 63 | 1002.1 | |
| 20260506125907 | 21 | 0.0 | 0.0 | 0.00 | 0.00 | 0.00 | 62 | 1002.1 | |
| 20260506124905 | 21 | 0.0 | 0.0 | 0.00 | 0.00 | 0.00 | 61 | 1002.0 | |
| 20260506123904 | 22 | 0.0 | 0.0 | 0.00 | 0.00 | 0.00 | 60 | 1001.9 | |
| 20260506122903 | 22 | 0.0 | 0.0 | 0.00 | 0.00 | 0.00 | 60 | 1001.9 | |
| 20260506121900 | 22 | 0.0 | 0.0 | 0.00 | 0.00 | 0.00 | 62 | 1002.0 | |
| 20260506120918 | 21 | 0.0 | 0.0 | 0.00 | 0.00 | 0.00 | 62 | 1002.0 | |
| 20260506115855 | 21 | 0.0 | 0.0 | 0.00 | 0.00 | 0.00 | 63 | 1002.0 | |
| 20260506114853 | 21 | 0.0 | 0.0 | 0.00 | 0.00 | 0.00 | 64 | 1002.0 | |
| 20260506113913 | 21 | 0.0 | 0.0 | 0.00 | 0.00 | 0.00 | 64 | 1002.1 | |
| 20260506112850 | 21 | 0.0 | 0.0 | 0.00 | 0.00 | 0.00 | 63 | 1002.0 | |
| 20260506111910 | 21 | 0.0 | 0.0 | 0.00 | 0.00 | 0.00 | 63 | 1002.0 | |
| 20260506110845 | 21 | 0.0 | 0.0 | 0.00 | 0.00 | 0.00 | 63 | 1002.1 | |
| 20260506105905 | 21 | 0.0 | 0.0 | 0.00 | 0.00 | 0.00 | 62 | 1002.2 | |
| 20260506104844 | 21 | 0.0 | 0.0 | 0.00 | 0.00 | 0.00 | 64 | 1002.4 | |
| 20260506103842 | 21 | 0.0 | 0.0 | 0.00 | 0.00 | 0.00 | 64 | 1002.4 | |
| 20260506102837 | 21 | 0.0 | 0.0 | 0.00 | 0.00 | 0.00 | 66 | 1002.5 | |
| 20260506101855 | 20 | 0.0 | 0.0 | 0.00 | 0.00 | 0.00 | 69 | 1002.5 | |
| 20260506100858 | 20 | 0.0 | 0.0 | 0.00 | 0.00 | 0.00 | 69 | 1002.5 | |
| 20260506095831 | 20 | 0.0 | 0.0 | 0.00 | 0.00 | 0.00 | 70 | 1002.5 | |
| 20260506094830 | 19 | 0.0 | 0.0 | 0.00 | 0.00 | 0.00 | 72 | 1002.5 | |
| 20260506093849 | 18 | 0.0 | 0.0 | 0.00 | 0.00 | 0.00 | 72 | 1002.5 | |
| 20260506092825 | 18 | 0.0 | 0.0 | 0.00 | 0.00 | 0.00 | 73 | 1002.5 | |
| 20260506091826 | 18 | 0.0 | 0.0 | 0.00 | 0.00 | 0.00 | 73 | 1002.5 | |
| 20260506090824 | 18 | 0.0 | 0.0 | 0.00 | 0.00 | 0.00 | 73 | 1002.5 | |
| 20260506085822 | 18 | 0.0 | 0.0 | 0.00 | 0.00 | 0.00 | 74 | 1002.5 | |
| 20260506084858 | 18 | 0.0 | 0.0 | 0.00 | 0.00 | 0.00 | 74 | 1002.4 | |
| 20260506083837 | 18 | 0.0 | 0.0 | 0.00 | 0.00 | 0.00 | 76 | 1002.4 | |
| 20260506082814 | 17 | 0.0 | 0.0 | 0.00 | 0.00 | 0.00 | 78 | 1002.4 | |
| 20260506081812 | 17 | 0.0 | 0.0 | 0.00 | 0.00 | 0.00 | 79 | 1002.3 | |
| 20260506080811 | 16 | 0.0 | 0.0 | 0.00 | 0.00 | 0.00 | 80 | 1002.2 | |
| 20260506072844 | 16 | 0.0 | 0.0 | 0.00 | 0.00 | 0.00 | 82 | 1002.0 | |
| 20260506071819 | 16 | 0.0 | 0.0 | 0.00 | 0.00 | 0.00 | 83 | 1001.8 | |
| 20260506070818 | 16 | 0.0 | 0.0 | 0.00 | 0.00 | 0.00 | 84 | 1001.9 | |
| 20260506061747 | 12 | 0.0 | 0.0 | 0.00 | 0.00 | 0.00 | 89 | 1002.2 | |
| 20260506060745 | 12 | 0.0 | 0.0 | 0.00 | 0.00 | 0.00 | 89 | 1002.2 | |
| 20260506050756 | 10 | 0.0 | 0.0 | 0.00 | 0.00 | 0.00 | 89 | 1002.3 | |
| 20260506044731 | 10 | 0.0 | 0.0 | 0.00 | 0.00 | 0.00 | 89 | 1002.3 | |
| 20260506043728 | 10 | 0.0 | 0.0 | 0.00 | 0.00 | 0.00 | 89 | 1002.4 | |
| 20260506042747 | 10 | 0.0 | 0.0 | 0.00 | 0.00 | 0.00 | 89 | 1002.4 | |
| 20260506041724 | 10 | 0.0 | 0.0 | 0.00 | 0.00 | 0.00 | 89 | 1002.4 | |
| 20260506040721 | 10 | 0.0 | 0.0 | 0.00 | 0.00 | 0.00 | 89 | 1002.4 | |
| 20260506035719 | 10 | 0.0 | 0.0 | 0.00 | 0.00 | 0.00 | 89 | 1002.4 | |
| 20260506034718 | 11 | 0.0 | 0.0 | 0.00 | 0.00 | 0.00 | 89 | 1002.4 | |
| 20260506033736 | 11 | 0.0 | 0.0 | 0.00 | 0.00 | 0.00 | 89 | 1002.5 | |
| 20260506032715 | 11 | 0.0 | 0.0 | 0.00 | 0.00 | 0.00 | 89 | 1002.5 | |
| 20260506031713 | 11 | 0.0 | 0.0 | 0.00 | 0.00 | 0.00 | 89 | 1002.6 | |
| 20260506030709 | 11 | 0.0 | 0.0 | 0.00 | 0.00 | 0.00 | 89 | 1002.7 | |
| 20260506025707 | 12 | 0.0 | 0.0 | 0.00 | 0.00 | 0.00 | 89 | 1002.9 | |
| 20260506024726 | 12 | 0.0 | 0.0 | 0.00 | 0.00 | 0.00 | 89 | 1002.9 | |
| 20260506023703 | 12 | 0.0 | 0.0 | 0.00 | 0.00 | 0.00 | 89 | 1003.0 | |
| 20260506022701 | 12 | 0.0 | 0.0 | 0.00 | 0.00 | 0.00 | 89 | 1003.2 | |
| 20260506021659 | 12 | 0.0 | 0.0 | 0.00 | 0.00 | 0.00 | 89 | 1003.2 | |
| 20260506020659 | 12 | 0.0 | 0.0 | 0.00 | 0.00 | 0.00 | 89 | 1003.1 | |
| 20260506015657 | 12 | 0.0 | 0.0 | 0.00 | 0.00 | 0.00 | 89 | 1003.2 | |
| 20260506014713 | 12 | 0.0 | 0.0 | 0.00 | 0.00 | 0.00 | 89 | 1003.1 | |
| 20260506013651 | 12 | 0.0 | 0.0 | 0.00 | 0.00 | 0.00 | 89 | 1003.1 | |
| 20260506012651 | 12 | 0.0 | 0.0 | 0.00 | 0.00 | 0.00 | 89 | 1003.1 | |
| 20260506011646 | 12 | 0.0 | 0.0 | 0.00 | 0.00 | 0.00 | 89 | 1003.1 | |
| 20260506010644 | 12 | 0.0 | 0.0 | 0.00 | 0.00 | 0.00 | 89 | 1003.1 | |
| 20260506005645 | 12 | 0.0 | 0.0 | 0.00 | 0.00 | 0.00 | 89 | 1003.2 | |
| 20260506004643 | 12 | 0.0 | 0.0 | 0.00 | 0.00 | 0.00 | 89 | 1003.3 | |
| 20260506003639 | 12 | 0.0 | 0.0 | 0.00 | 0.00 | 0.00 | 89 | 1003.4 | |
| 20260506002638 | 12 | 0.0 | 0.0 | 0.00 | 0.00 | 0.00 | 89 | 1003.6 | |
| 20260506001636 | 12 | 0.0 | 0.0 | 0.00 | 0.00 | 0.00 | 89 | 1003.6 | |
| 20260506000718 | 12 | 0.0 | 0.0 | 0.00 | 0.00 | 0.00 | 89 | 1003.6 | |
| 20260505235634 | 12 | 0.0 | 0.0 | 0.00 | 0.00 | 0.00 | 89 | 1003.7 | |
| 20260505234631 | 13 | 0.0 | 0.0 | 0.00 | 0.00 | 0.00 | 89 | 1003.8 | |
| 20260505233627 | 13 | 0.0 | 0.0 | 0.00 | 0.00 | 0.00 | 89 | 1003.9 | |
| 20260505232628 | 13 | 0.0 | 0.0 | 0.00 | 0.00 | 0.00 | 89 | 1003.8 | |
| 20260505231624 | 13 | 0.0 | 0.0 | 0.00 | 0.00 | 0.00 | 89 | 1004.0 | |
| 20260505230621 | 13 | 0.0 | 0.0 | 0.00 | 0.00 | 0.00 | 89 | 1004.0 | |
| 20260505225619 | 13 | 0.0 | 0.0 | 0.00 | 0.00 | 0.00 | 89 | 1004.1 | |
| 20260505224616 | 12 | 0.0 | 0.0 | 0.00 | 0.00 | 0.00 | 89 | 1004.1 | |
| 20260505223617 | 12 | 0.0 | 0.0 | 0.00 | 0.00 | 0.00 | 89 | 1004.1 | |
| 20260505222635 | 12 | 0.0 | 0.0 | 0.00 | 0.00 | 0.00 | 89 | 1004.1 | |
| 20260505221742 | 12 | 0.0 | 0.0 | 0.00 | 0.00 | 0.00 | 89 | 1004.1 | |
| 20260505220609 | 12 | 0.0 | 0.0 | 0.00 | 0.00 | 0.00 | 89 | 1004.0 | |
| 20260505215628 | 13 | 0.0 | 0.0 | 0.00 | 0.00 | 0.00 | 89 | 1003.9 | |
| 20260505214628 | 13 | 0.0 | 0.0 | 0.00 | 0.00 | 0.00 | 89 | 1004.0 | |
| 20260505213604 | 13 | 0.0 | 0.0 | 0.00 | 0.00 | 0.00 | 89 | 1004.0 | |
| 20260505212602 | 13 | 0.0 | 0.0 | 0.00 | 0.00 | 0.00 | 88 | 1004.0 |